SM7GXQ Weather Reports


time (UTC)temp
C
wind
direction
speed
KPH
gust
KPH
rain 1hr
cm
rain 24hr
cm
rain mn
cm
humidity
%
barometer
mb
20260509061504 10 66 8.0 11.3 0.00 0.00 0.00 66 1023.1
20260509060004 9 25 6.4 11.3 0.00 0.00 0.00 69 1023.1
20260509043004 7 30 8.0 12.9 0.00 0.00 0.00 77 1023.0
20260509034503 6 28 4.8 9.7 0.00 0.00 0.00 84 1023.2
20260509033004 5 21 1.6 8.0 0.00 0.00 0.00 86 1023.2
20260509031504 5 24 3.2 8.0 0.00 0.00 0.00 84 1023.3
20260509024504 6 34 4.8 11.3 0.00 0.00 0.00 84 1023.2
20260509020004 6 31 4.8 11.3 0.00 0.00 0.00 78 1023.4
20260509013003 6 28 4.8 11.3 0.00 0.00 0.00 77 1023.4
20260509001503 6 16 3.2 9.7 0.00 0.00 0.00 74 1023.5
20260509000004 6 20 6.4 11.3 0.00 0.00 0.00 73 1023.6
20260508231504 6 26 4.8 11.3 0.00 0.00 0.00 74 1023.8
20260508223003 6 30 8.0 11.3 0.00 0.00 0.00 73 1024.0
20260508221504 6 10 4.8 11.3 0.00 0.00 0.00 74 1024.0
20260508220004 6 16 4.8 9.7 0.00 0.00 0.00 73 1024.0
20260508214503 7 14 4.8 9.7 0.00 0.00 0.00 73 1024.1
20260508213004 7 22 4.8 9.7 0.00 0.00 0.00 73 1024.1
20260508210003 7 40 4.8 9.7 0.00 0.00 0.00 74 1024.0
20260508200004 7 23 4.8 11.3 0.00 0.00 0.00 80 1023.8
20260508194504 7 22 4.8 12.9 0.00 0.00 0.00 80 1023.8
20260508193005 7 31 6.4 12.9 0.00 0.00 0.00 79 1023.7
20260508184504 8 10 3.2 4.8 0.00 0.00 0.00 70 1023.2
20260508171504 11 79 4.8 11.3 0.00 0.00 0.00 53 1023.2
20260508170004 11 61 8.0 12.9 0.00 0.00 0.00 48 1023.2
20260508163005 12 48 6.4 19.3 0.00 0.00 0.00 32 1023.0
20260508161504 12 29 8.0 22.5 0.00 0.00 0.00 32 1023.1
20260508160004 12 46 8.0 19.3 0.00 0.00 0.00 31 1023.2
20260508153004 13 40 9.7 29.0 0.00 0.00 0.00 29 1023.2
20260508151503 13 37 14.5 27.4 0.00 0.00 0.00 31 1023.4
20260508150005 13 30 11.3 24.1 0.00 0.00 0.00 32 1023.6
20260508134504 13 38 11.3 27.4 0.00 0.00 0.00 29 1023.8
20260508133005 13 59 14.5 32.2 0.00 0.00 0.00 29 1023.8
20260508131503 13 49 16.1 24.1 0.00 0.00 0.00 29 1024.0
20260508130004 13 54 8.0 29.0 0.00 0.00 0.00 32 1024.0
20260508124503 14 21 14.5 27.4 0.00 0.00 0.00 29 1024.0
20260508123005 13 40 14.5 29.0 0.00 0.00 0.00 33 1024.0
20260508121504 13 64 9.7 29.0 0.00 0.00 0.00 36 1024.0
20260508120004 12 81 12.9 33.8 0.00 0.00 0.00 39 1024.0
20260508111505 13 30 14.5 27.4 0.00 0.00 0.00 34 1024.0
20260508110004 13 46 12.9 27.4 0.00 0.00 0.00 35 1024.0
20260508100005 13 80 9.7 27.4 0.00 0.00 0.00 35 1023.9
20260508094504 13 83 11.3 24.1 0.00 0.00 0.00 34 1023.9
20260508091504 13 82 12.9 24.1 0.00 0.00 0.00 36 1023.7
20260508090004 13 76 16.1 24.1 0.00 0.00 0.00 37 1023.7
20260508084504 13 113 12.9 24.1 0.00 0.00 0.00 38 1023.7
20260508080004 12 55 14.5 25.7 0.00 0.00 0.00 33 1023.5
20260508074504 12 72 8.0 20.9 0.00 0.00 0.00 34 1023.5